BRAC ONNESHA (42823 NORAD) Tracking and Keplerian Element Data

This shows tracking and keplerian element data for the satellite.

Feedback or suggestion? Click here.




ElementValue
Catalog42823
NameBRAC ONNESHA
Epoch Orbit7707
Epoch Day315.88978859
Epoch Year2018
RAAN326.0753
Inclination51.6323
Eccentricity0.0006262
Argument of Perigee36.066
Mean Anonmoly324.0761
Mean Motion15.75716168
Decay Rate0.00045604
L11 42823U 98067MX 18315.88978859 .00045604 00000-0 29312-3 0 9998
L22 42823 51.6323 326.0753 0006262 36.0660 324.0761 15.75716168 77075

Live tracking and technical data element details for BRAC ONNESHA (NORAD 42823). BRAC ONNESHA can be tracked NOW for your location showing map with azimuth and elevation plus other details from your city location.

Track the satellite on the map from your city or location and see movement details for azimuth, elevation, latitude, longitude, range, height, and movement on the map or in text.







IsCatalogInMostPopularTable: catalog: 42823, numindb: 123
Update: records affected: 1



GetName: 42823 BRAC ONNESHA

Hit Count: updated at: Mon, 12 Nov 2018 17:31:28 GMT